EHI
0 0 0 0 0 0 0 0 0 0 0 0 0 0 0 0 0 0 0 0 0 0 0 0 0 0 0 0 0 0 0 0 0 0 0 0 0 0 0 0 0 0 0 0
0 0 0 0 0 0 0 0 0 0 0 0 0 0 0 0 0 0 0 0 0 0 0 0 0 0 0 0 0 0 0 0 0 0 0 0 0 0 0 0 0 0 0 0
0 0 0 0 0 0 0 0 0 0 0 0 0 0 0 0 0 0 0 0 0 0 0 0 0 0 0 0 0 0 0 0 0 0 0 0 0 0 0 0 0 0 0 0
0 0 0 0 0 0 0 0 0 0 0 0 0 0 0 0 0 0 0 0 0 0 0 0 0 0 0 0 0 0 0 0 0 0 0 0 0 0 0 0 0 0 0 0
0 0 0 0 0 0 0 0 0 0 0 0 0 0 0 0 0 0 0 0 0 0 0 0 0 0 0 0 0 0 0 0 0 0 0 0 0 0 0 0 0 0 0 0
0 0 0 0 0 0 0 0 0 0 0 0 0 0 0 0 0 0 0 0 0 0 0 0 0 0 0 0 0 0 0 0 0 0 0 0 0 0 0 0 0 0 0 0
0 0 0 0 0 0 0 0 0 0 0 0 0 0 0 0 0 0 0 0 0 0 0 0 0 0 0 0 0 0 0 0 0 0 0 0 0 0 0 0 0 0 0 0
0 0 0 0 0 0 0 0 0 0 0 0 0 0 0 0 0 0 0 0 0 0 0 0 0 0 0 0 0 0 0 0 0 0 0 0 0 0 0 0 0 0 0 0
0 0 0 0 0 0 0 0 0 0 0 0 0 0 0 0 0 0 0 0 0 0 0 0 0 0 0 0 0 0 0 0 0 0 0 0 0 0 0 0 0 0 0 0
0 0 0 0 0 0 0 0 0 0 0 0 0 0 0 0 0 0 0 0 0 0 0 0 0 0 0 0 0 0 0 0 0 0 0 0 0 0 0 0 0 0 0 0
0 0 0 0 0 0 0 0 0 0 0 0 0 0 0 0 0 0 0 0 0 0 0 0 0 0 0 0 0 0 0 0 0 0 0 0 0 0 0 0 0 0 0 0
0 0 0 0 0 0 0 0 0 0 0 0 0 0 0 0 0 0 0 0 0 0 0 0 0 0 0 0 0 0 0 0 0 0 0 0 0 0 0 0 0 0 0 0
0 0 0 0 0 0 0 0 0 0 0 0 0 0 0 0 0 0 0 0 0 0 0 0 0 0 0 0 0 0 0 0 0 0 0 0 0 0 0 0 0 0 0 0
0 0 0 0 0 0 0 0 0 0 0 0 0 0 0 0 0 0 0 0 0 0 0 0 0 0 0 0 0 0 0 0 0 0 0 0 0 0 0 0 0 0 0 0
0 0 0 0 0 0 0 0 0 0 0 0 0 0 0 0 0 0 0 0 0 0 0 0 0 0 0 0 0 0 0 0 0 0 0 0 0 0 0 0 0 0 0 0
0 0 0 0 0 0 0 0 0 0 0 0 0 0 0 0 0 0 0 0 0 0 0 0 0 0 0 0 0 0 0 0 0 0 0 0 0 0 0 0 0 0 0 0
0 0 0 0 0 0 0 0 0 0 0 0 0 0 0 0 0 0 0 0 0 0 0 0 0 0 0 0 0 0 0 0 0 0 0 0 0 0 0 0 0 0 0 0
0 0 0 0 0 0 0 0 0 0 0 0 0 0 0 0 0 0 0 0 0 0 0 0 0 0 0 0 0 0 0 0 0 0 0 0 0 0 0 0 0 0 0 0
0 0 0 0 0 0 0 0 0 0 0 0 0 0 0 0 0 0 0 0 0 0 0 0 0 0 0 0 0 0 0 0 0 0 0 0 0 0 0 0 0 0 0 0
0 0 0 0 0 0 0 0 0 0 0 0 0 0 0 0 0 0 0 0 0 0 0 0 0 0 0 0 0 0 0 0 0 0 0 0 0 0 0 0 0 0 0 0
0 0 0 0 0 0 0 0 0 0 0 0 0 0 0 0 0 0 0 0 0 0 0 0 0 0 0 0 0 0 0 0 0 0 0 0 0 0 0 0 0 0 0 0
0 0 0 0 0 0 0 0 0 0 0 0 0 0 0 0 0 0 0 0 0 0 0 0 0 0 0 0 0 0 0 0 0 0 0 0 0 0 0 0 0 0 0 0
0 0 0 0 0 0 0 0 0 0 0 0 0 0 0 0 0 0 0 0 0 0 0 0 0 0 0 0 0 0 0 0 0 0 0 0 0 0 0 0 0 0 0 0
0 0 0 0 0 0 0 0 0 0 0 0 0 0 0 0 0 0 0 0 0 0 0 0 0 0 0 0 0 0 0 0 0 0 0 0 0 0 0 0 0 0 0 0
0 0 0 0 0 0 0 0 0 0 0 0 0 0 0 0 0 0 0 0 0 0 0 0 0 0 0 0 0 0 0 0 0 0 0 0 0 0 0 0 0 0 0 0
0 0 0 0 0 0 0 0 0 0 0 0 0 0 0 0 0 0 0 0 0 0 0 0 0 0 0 0 0 0 0 0 0 0 0 0 0 0 0 0 0 0 0 0
Wind_Speed
2 2 2 3 3 1 2 4 4 4 2 4 7 11 11 7 6 7 7 6 7 7 6 5 5 6 6 5 5 5 4 3 3 2 2 2 2 2 1 1 1 2 2 2
3 2 2 1 2 2 2 4 4 3 2 3 7 11 10 7 7 7 7 7 7 6 5 6 6 6 6 6 6 6 5 5 4 3 2 2 2 2 1 1 1 2 2 2
3 1 1 3 3 3 3 5 4 4 4 3 6 7 6 4 5 5 7 7 6 7 7 6 6 6 6 6 7 6 6 5 5 4 2 2 2 1 2 1 2 2 2 2
2 1 2 3 3 3 4 3 4 2 3 2 3 5 5 4 5 6 6 6 6 7 6 6 6 6 6 6 6 6 6 6 5 5 4 4 3 3 3 2 2 1 2 2
2 1 2 3 2 3 1 1 2 2 2 4 2 5 5 3 6 7 7 6 6 6 7 7 7 7 6 5 5 5 5 6 5 5 5 5 4 3 2 2 2 1 1 2
1 1 1 1 1 3 2 1 1 2 2 4 3 5 6 4 6 5 6 6 5 5 6 6 6 5 5 4 4 4 5 6 5 6 6 6 5 4 3 3 2 2 2 2
1 2 1 2 3 3 3 2 1 1 2 4 2 6 9 4 5 6 6 5 5 4 5 5 5 6 5 5 4 4 5 5 5 5 6 6 6 6 5 4 3 3 2 2
3 3 3 2 3 3 4 3 2 2 3 2 3 7 6 2 3 4 4 4 3 4 5 6 6 6 5 5 5 5 5 5 5 5 5 5 5 4 4 4 4 3 3 2
4 3 2 2 1 2 4 3 1 1 0 3 5 6 7 3 3 3 3 3 4 4 5 5 5 5 6 6 6 6 6 5 5 5 5 5 5 5 4 4 4 3 3 2
2 2 2 2 2 1 1 3 3 3 2 4 4 5 4 4 4 2 2 3 4 4 4 5 5 5 5 5 5 5 6 6 5 5 4 4 4 4 4 3 3 3 3 2
2 3 2 3 6 6 5 4 3 2 2 3 4 4 3 4 3 4 4 4 4 4 5 5 5 4 4 5 5 5 5 5 5 5 4 4 4 4 3 3 3 3 2 3
2 2 2 3 1 1 3 5 6 4 4 4 4 6 1 3 3 4 4 4 4 4 4 4 4 4 4 5 5 6 6 6 5 5 4 4 4 3 3 3 3 3 3 3
3 3 1 1 2 3 4 5 5 2 2 4 6 7 1 1 4 4 5 5 4 4 4 4 4 4 5 5 5 5 6 5 5 5 5 4 4 4 4 4 3 3 3 2
2 3 5 5 2 4 6 6 7 7 6 7 11 12 9 8 9 8 7 6 5 5 5 5 5 5 5 5 5 5 6 5 5 5 5 5 5 5 5 4 3 3 3 3
2 4 4 5 5 4 7 9 11 13 12 11 11 13 16 12 10 9 7 6 6 6 6 6 6 6 6 5 5 5 5 5 5 5 5 5 5 4 4 4 3 3 3 3
2 3 2 4 3 5 10 14 16 16 15 16 16 19 15 11 8 8 7 6 7 7 7 7 6 6 6 6 6 5 6 5 6 6 6 5 4 4 4 4 3 3 3 3
5 5 3 4 2 4 12 14 17 14 14 13 16 14 7 7 7 7 7 7 8 8 8 7 7 7 7 6 6 6 6 5 6 6 5 5 5 5 4 4 4 4 4 4
6 5 2 2 0 10 8 3 10 12 13 16 15 13 9 8 7 7 8 8 9 8 8 7 6 6 5 5 5 4 4 5 6 6 6 5 5 5 5 5 5 5 4 4
6 6 4 3 6 12 9 5 8 10 11 12 16 15 10 5 6 7 6 8 8 8 7 6 5 4 4 4 4 4 4 4 5 6 6 6 6 6 6 6 5 5 4 4
2 4 4 5 6 10 5 2 4 4 8 6 11 11 7 2 5 4 2 4 6 5 4 4 3 2 3 3 4 4 5 5 6 6 5 5 6 6 6 6 5 4 4 4
5 6 8 9 10 12 5 4 6 6 5 2 7 7 6 8 7 4 4 4 4 3 3 2 2 3 4 3 4 5 5 7 6 4 4 5 6 6 5 4 4 4 4 4
11 9 10 8 9 13 5 9 10 6 1 1 3 5 7 8 7 6 6 5 4 3 3 2 3 3 3 4 5 6 7 5 3 4 4 4 4 4 4 4 4 4 4 4
11 10 8 12 11 3 8 9 6 1 3 4 4 5 6 7 8 8 7 6 5 4 4 3 3 3 3 4 5 7 5 3 3 4 4 3 3 3 4 4 4 4 4 4
8 4 5 9 12 8 8 9 7 6 7 7 5 5 5 8 8 8 7 6 5 4 4 3 3 4 5 4 5 5 2 3 4 5 4 3 4 4 3 3 4 4 4 4
7 7 7 10 9 8 9 10 11 10 9 10 9 7 8 9 10 9 8 7 6 5 3 3 4 5 5 4 5 3 2 4 5 5 4 4 4 4 4 4 3 4 4 4
8 10 10 11 8 8 8 5 6 8 9 9 9 8 7 7 10 9 8 6 5 4 3 3 4 5 4 4 4 3 3 4 5 5 5 4 4 3 3 3 2 3 4 4
Wind_Direction
49 116 156 197 213 222 194 210 250 266 303 279 267 272 272 262 245 248 242 233 232 234 223 211 208 204 204 203 204 203 198 198 191 192 198 206 208 205 210 223 232 218 197 190
133 182 227 218 191 195 206 228 254 282 315 282 287 280 270 254 241 243 244 235 231 230 212 204 204 200 205 207 208 207 205 204 202 205 203 219 214 213 225 225 242 229 210 199
162 121 216 184 176 194 239 240 248 282 306 261 293 273 244 232 239 240 240 238 230 225 217 205 203 205 207 211 212 212 210 209 209 204 181 173 191 193 200 213 234 233 225 207
140 250 199 187 208 233 242 236 243 266 291 298 315 283 245 232 248 240 236 233 229 221 218 214 211 209 209 212 213 216 214 211 209 200 197 197 207 215 220 220 222 216 211 218
160 193 207 214 224 228 217 223 229 247 272 278 247 265 261 214 241 236 229 228 227 222 218 217 217 217 214 211 210 212 212 212 209 206 206 208 219 226 219 208 217 217 207 217
152 205 260 249 236 210 178 175 180 204 241 260 235 246 261 214 224 231 225 224 222 216 219 219 218 217 214 205 202 205 206 209 210 208 210 212 216 218 212 212 212 216 217 213
178 177 178 219 181 173 203 204 229 224 231 248 168 235 253 242 236 242 240 230 222 213 215 212 211 212 208 204 202 202 204 209 207 208 211 212 216 216 217 217 215 217 220 218
191 212 186 203 216 193 195 224 203 242 257 277 197 239 257 278 278 259 257 246 237 225 222 214 210 209 206 205 203 201 206 212 207 206 210 212 216 216 220 218 215 216 222 225
195 201 137 183 237 206 174 192 312 133 116 268 248 266 285 236 236 231 239 236 236 235 228 223 217 213 211 208 207 205 207 211 210 210 210 211 212 215 219 219 218 219 220 219
196 197 183 168 183 194 283 155 168 190 231 269 276 258 245 221 220 212 219 236 244 237 231 226 224 220 217 213 209 206 209 212 212 211 211 213 214 215 216 215 217 220 217 210
196 178 176 184 203 192 169 178 188 170 246 241 271 262 217 221 216 224 234 243 245 235 231 229 227 222 215 209 207 207 209 211 210 209 209 211 212 211 212 213 217 218 213 206
170 168 215 214 147 286 225 209 189 205 219 228 258 271 165 228 247 244 255 263 254 247 244 236 228 218 214 214 211 210 210 209 210 205 204 205 204 202 205 211 219 217 216 214
160 165 180 205 184 196 228 217 209 199 169 201 226 258 102 245 266 261 266 272 263 256 252 241 230 223 221 219 216 216 215 212 207 200 200 198 198 200 204 206 206 208 210 209
160 200 217 236 249 181 208 208 198 191 212 226 235 259 272 275 280 284 280 275 270 261 251 246 242 234 227 223 220 220 219 210 204 199 201 203 205 205 204 200 198 202 205 204
179 223 235 267 273 246 238 227 210 215 224 233 248 257 269 275 276 280 280 277 270 264 256 248 246 243 234 227 225 222 221 210 201 200 204 211 209 203 199 198 198 199 202 205
188 210 210 265 257 258 260 243 230 232 237 246 261 268 269 277 274 273 271 266 263 260 258 255 249 244 236 229 227 223 221 211 201 205 209 205 200 196 195 197 195 194 200 204
180 171 195 254 280 293 262 232 214 218 220 220 237 249 264 264 261 263 263 257 256 260 259 255 251 243 234 229 222 222 220 208 201 205 204 199 197 198 198 192 192 198 202 203
177 170 200 262 254 245 250 170 198 216 233 224 241 255 259 260 277 275 263 258 263 264 263 261 254 249 238 226 219 218 208 206 206 206 204 199 198 200 197 196 202 205 202 205
200 180 185 205 245 270 275 210 187 206 251 226 234 250 259 280 294 269 245 240 253 261 261 260 255 246 230 218 211 200 204 206 209 213 211 206 201 200 199 203 206 205 202 206
174 189 194 203 229 246 259 157 172 179 263 224 216 237 243 203 257 274 307 276 274 277 269 265 255 232 213 209 194 197 207 212 220 219 216 209 204 203 206 208 206 204 203 208
171 188 205 216 237 259 262 136 150 196 253 197 201 217 205 214 242 302 313 296 286 280 278 269 236 222 216 192 187 203 210 223 229 221 211 206 206 206 207 203 200 200 199 200
182 182 197 194 221 247 166 153 196 229 321 204 222 225 222 238 265 286 288 284 280 279 278 253 234 235 214 193 197 213 225 232 222 210 208 207 204 199 195 194 198 196 194 198
208 204 197 202 223 258 170 199 223 284 274 271 263 257 247 256 265 271 276 275 270 263 259 244 235 234 224 208 210 224 233 211 207 205 206 202 194 196 193 194 196 196 198 205
231 229 220 244 255 252 237 249 259 255 261 276 276 274 263 264 273 274 273 274 270 261 250 240 226 229 234 222 222 233 230 196 197 204 205 195 195 200 196 199 200 203 203 208
217 190 221 248 267 285 262 243 251 261 266 270 270 266 263 265 268 265 265 264 260 256 246 230 228 233 237 226 231 230 198 188 199 204 203 202 204 202 203 207 210 216 220 219
203 200 211 241 233 232 258 257 248 255 263 266 269 273 269 254 261 265 264 265 262 254 239 232 235 239 240 227 229 221 201 193 193 199 203 204 204 202 203 200 215 234 239 239